Location: 81360 Arifat, France
(43.7204°N, 2.3408°E)
Time: 04:08:44
(UTC+01:00)

ACS3 Solar Sail - Pass Details

Date: 18 October 2025
Orbit: 909 x 993 km, 97.3° (Epoch: 13 November)

Event Time Altitude Azimuth Distance (km) Brightness Sun altitude
Rises 04:21:12 0° 25° (NNE) 3,551 5.4 -40.6°
Reaches altitude 10° 04:24:16 10° 41° (NE) 2,609 4.7 -40.1°
Maximum altitude 04:28:35 21° 90° (E) 1,931 3.8 -39.5°
Enters shadow 04:30:35 18° 116° (ESE) 2,099 3.8 -39.1°
